Location: Lower Kingswood
(51.2667°N, 0.2167°W)
Time: 19:10:27
(UTC+00:00)

SL-16 R/B - Pass Details

Date: 26 September 2023
Orbit: 842 x 845 km, 71.0° (Epoch: 09 December)

Event Time Altitude Azimuth Distance (km) Brightness Sun altitude
Rises 03:15:17 0° 328° (NNW) 3,414 5.4 -24.3°
Reaches altitude 10° 03:17:45 10° 325° (NW) 2,476 4.6 -24.0°
Maximum altitude 03:23:21 63° 246° (WSW) 943 2.1 -23.2°
Drops below altitude 10° 03:28:56 10° 166° (SSE) 2,461 4.5 -22.4°
Sets 03:31:23 0° 164° (SSE) 3,393 5.2 -22.1°
